Powrót do katalogu

STARLINK-34945

AktywnyŁącznośćSSO
NORAD 65185·PAYLOAD·🇺🇸 United States

Wystrzelony Aug 14, 2025 z Vandenberg Space Force Base

Loading…

Następne Przeloty (najbliższe 24 godziny)

TLE

ŚwieżeSource: CelesTrak SupGP

Epoka: Sep 14, 2026, 21:04 UTC

1 65185C 25175M   26257.87826389 -.00029335  00000+0 -91084-3 0  2573
2 65185  97.2844 126.8879 0001877  91.7916  61.2760 15.33445683    13

Śledź STARLINK-34945 w czasie rzeczywistym z AllMySat

Download on the App Store